This is the latest recevied weather packets stored in our database for station/object N8WJW. If no packets are shown the sender has not sent any weather packets the latest 10 day(s).
| Time | Temp. | Humidity | Pressure | Rain* | Wind** | Luminosity | Snow |
|---|---|---|---|---|---|---|---|
| 1777466544 | 11.11° C | 99% | 1011.2 hPa | 0 mm | - | 77 W/m² | - |
| 1777466241 | 11.11° C | 99% | 1010.8 hPa | 0 mm | - | 97 W/m² | - |
| 1777465936 | 11.11° C | 99% | 1011.2 hPa | 0 mm | - | 94 W/m² | - |
| 1777465633 | 10.56° C | 99% | 1011.5 hPa | 0 mm | - | 79 W/m² | - |
| 1777465329 | 10.56° C | 99% | 1012 hPa | 0 mm | - | 45 W/m² | - |
| 1777465022 | 10.56° C | 99% | 1011.9 hPa | 0 mm | - | 37 W/m² | - |
| 1777464717 | 10.56° C | 99% | 1011.8 hPa | 0 mm | - | 26 W/m² | - |
| 1777464414 | 10° C | 99% | 1011.8 hPa | 0 mm | - | 65 W/m² | - |
| 1777464110 | 10° C | 99% | 1011.7 hPa | 0 mm | - | 36 W/m² | - |
| 1777463809 | 10° C | 99% | 1012.1 hPa | 0 mm | - | 30 W/m² | - |
| 1777463505 | 10° C | 99% | 1011.6 hPa | 0 mm | - | 15 W/m² | - |
| 1777463200 | 9.44° C | 99% | 1012.5 hPa | 0 mm | - | 8 W/m² | - |
| 1777462896 | 9.44° C | 99% | 1013.1 hPa | 0 mm | - | 7 W/m² | - |
| 1777462593 | 9.44° C | 99% | 1013 hPa | 0 mm | - | 3 W/m² | - |
| 1777462289 | 9.44° C | 99% | 1013.3 hPa | 0 mm | - | 4 W/m² | - |
| 1777461984 | 9.44° C | 99% | 1013 hPa | 0 mm | - | 4 W/m² | - |
| 1777461682 | 9.44° C | 99% | 1012.9 hPa | 0 mm | - | 6 W/m² | - |
| 1777461382 | 9.44° C | 99% | 1013.1 hPa | 0 mm | - | 8 W/m² | - |
| 1777461078 | 9.44° C | 99% | 1013 hPa | 0 mm | - | 16 W/m² | - |
| 1777460774 | 8.89° C | 99% | 1013 hPa | 0 mm | - | 14 W/m² | - |
| 1777460470 | 8.89° C | 99% | 1013.3 hPa | 0 mm | - | 5 W/m² | - |
| 1777460165 | 8.89° C | 99% | 1013.2 hPa | 0 mm | - | 4 W/m² | - |
| 1777459864 | 8.89° C | 99% | 1013.1 hPa | 0 mm | - | 4 W/m² | - |
| 1777459560 | 8.89° C | 99% | 1012.9 hPa | 0 mm | - | 4 W/m² | - |
| 1777459258 | 8.33° C | 99% | 1012.8 hPa | 0 mm | - | 4 W/m² | - |
* Rain latest hour (hover to see other rain measurements)
** Current wind speed in m/s (hover to see current wind gust speed)